Time,TemperatureF,DewpointF,PressureIn,WindDirection,WindDirectionDegrees,WindSpeedMPH,WindSpeedGustMPH,Humidity,HourlyPrecipIn,Conditions,Clouds,dailyrainin,SoftwareType,DateUTC
2013-03-25 00:00:00,25.0,18.8,30.21,SSE,157,0.0,0.0,77,0.00,,,0.00,WUHU21623XXSP,2013-03-25 07:00:00,
2013-03-25 00:05:00,24.6,18.1,30.22,SSE,157,0.0,0.0,76,0.00,,,0.00,WUHU21623XXSP,2013-03-25 07:05:00,
2013-03-25 00:10:00,24.4,17.9,30.22,SSE,157,0.0,0.0,76,0.00,,,0.00,WUHU21623XXSP,2013-03-25 07:10:00,
2013-03-25 00:15:00,24.4,17.9,30.21,SSE,157,0.0,0.0,76,0.00,,,0.00,WUHU21623XXSP,2013-03-25 07:15:00,
2013-03-25 00:20:00,24.4,17.9,30.21,SSE,157,0.0,0.0,76,0.00,,,0.00,WUHU21623XXSP,2013-03-25 07:20:00,
2013-03-25 00:25:00,24.4,17.9,30.21,SSE,157,0.0,0.0,76,0.00,,,0.00,WUHU21623XXSP,2013-03-25 07:25:00,
2013-03-25 00:30:00,24.6,18.4,30.21,SSE,157,0.0,0.0,77,0.00,,,0.00,WUHU21623XXSP,2013-03-25 07:30:00,
2013-03-25 00:35:00,24.6,18.4,30.21,SSE,157,0.0,0.0,77,0.00,,,0.00,WUHU21623XXSP,2013-03-25 07:35:00,
2013-03-25 00:40:00,24.4,18.2,30.21,SSE,157,0.0,0.0,77,0.00,,,0.00,WUHU21623XXSP,2013-03-25 07:40:00,
2013-03-25 00:45:00,24.4,18.5,30.21,SSE,157,0.0,0.0,78,0.00,,,0.00,WUHU21623XXSP,2013-03-25 07:45:00,
2013-03-25 00:50:00,24.1,17.9,30.21,SSE,157,0.0,0.0,77,0.00,,,0.00,WUHU21623XXSP,2013-03-25 07:50:00,
2013-03-25 00:55:00,24.1,18.2,30.21,SSE,157,0.0,0.0,78,0.00,,,0.00,WUHU21623XXSP,2013-03-25 07:55:00,
2013-03-25 01:00:00,24.1,18.2,30.21,SSE,157,0.0,0.0,78,0.00,,,0.00,WUHU21623XXSP,2013-03-25 08:00:00,
2013-03-25 01:05:00,24.1,18.2,30.21,SSE,157,0.0,0.0,78,0.00,,,0.00,WUHU21623XXSP,2013-03-25 08:05:00,
2013-03-25 01:10:00,24.1,18.2,30.21,SSE,157,0.0,0.0,78,0.00,,,0.00,WUHU21623XXSP,2013-03-25 08:10:00,
2013-03-25 01:15:00,24.4,18.5,30.21,SSE,157,0.0,0.0,78,0.00,,,0.00,WUHU21623XXSP,2013-03-25 08:15:00,
2013-03-25 01:20:00,24.1,18.2,30.20,SSE,157,0.0,0.0,78,0.00,,,0.00,WUHU21623XXSP,2013-03-25 08:20:00,
2013-03-25 01:25:00,23.9,18.0,30.21,SSE,157,0.0,0.0,78,0.00,,,0.00,WUHU21623XXSP,2013-03-25 08:25:00,
2013-03-25 01:30:00,23.9,18.0,30.21,SSE,157,0.0,0.0,78,0.00,,,0.00,WUHU21623XXSP,2013-03-25 08:30:00,
2013-03-25 01:35:00,23.5,17.6,30.21,SSE,157,0.0,0.0,78,0.00,,,0.00,WUHU21623XXSP,2013-03-25 08:35:00,
2013-03-25 01:40:00,23.4,17.5,30.20,SSE,157,0.0,0.0,78,0.00,,,0.00,WUHU21623XXSP,2013-03-25 08:40:00,
2013-03-25 01:45:00,23.4,17.8,30.21,SSE,157,0.0,0.0,79,0.00,,,0.00,WUHU21623XXSP,2013-03-25 08:45:00,
2013-03-25 01:50:00,23.4,17.8,30.20,SSE,157,0.0,0.0,79,0.00,,,0.00,WUHU21623XXSP,2013-03-25 08:50:00,
2013-03-25 01:55:00,23.2,17.6,30.20,SSE,157,0.0,0.0,79,0.00,,,0.00,WUHU21623XXSP,2013-03-25 08:55:00,
2013-03-25 02:00:00,23.0,17.7,30.20,SSE,157,0.0,0.0,80,0.00,,,0.00,WUHU21623XXSP,2013-03-25 09:00:00,
2013-03-25 02:05:00,22.8,17.5,30.20,SSE,157,0.0,0.0,80,0.00,,,0.00,WUHU21623XXSP,2013-03-25 09:05:00,
2013-03-25 02:10:00,22.8,17.5,30.20,SSE,157,0.0,0.0,80,0.00,,,0.00,WUHU21623XXSP,2013-03-25 09:10:00,
2013-03-25 02:15:00,22.8,17.5,30.20,SSE,157,0.0,0.0,80,0.00,,,0.00,WUHU21623XXSP,2013-03-25 09:15:00,
2013-03-25 02:20:00,23.2,18.7,30.20,SSE,157,0.0,0.0,83,0.00,,,0.00,WUHU21623XXSP,2013-03-25 09:20:00,
2013-03-25 02:25:00,23.2,18.7,30.20,SSE,157,0.0,0.0,83,0.00,,,0.00,WUHU21623XXSP,2013-03-25 09:25:00,
2013-03-25 02:30:00,23.4,18.9,30.20,SSE,157,0.0,0.0,83,0.00,,,0.00,WUHU21623XXSP,2013-03-25 09:30:00,
2013-03-25 02:35:00,23.7,19.5,30.20,SSE,157,0.0,0.0,84,0.00,,,0.00,WUHU21623XXSP,2013-03-25 09:35:00,
2013-03-25 02:40:00,24.1,19.9,30.20,SE,135,0.0,0.0,84,0.00,,,0.00,WUHU21623XXSP,2013-03-25 09:40:00,
2013-03-25 02:45:00,24.4,20.2,30.20,SE,135,0.0,0.0,84,0.00,,,0.00,WUHU21623XXSP,2013-03-25 09:45:00,
2013-03-25 02:50:00,25.0,20.2,30.20,SE,135,0.0,0.0,82,0.00,,,0.00,WUHU21623XXSP,2013-03-25 09:50:00,
2013-03-25 02:55:00,25.2,20.1,30.20,SE,135,0.0,0.0,81,0.00,,,0.00,WUHU21623XXSP,2013-03-25 09:55:00,
2013-03-25 03:00:00,25.3,19.9,30.20,SE,135,0.0,0.0,80,0.00,,,0.00,WUHU21623XXSP,2013-03-25 10:00:00,
2013-03-25 03:05:00,25.2,19.6,30.20,SE,135,0.0,0.0,79,0.00,,,0.00,WUHU21623XXSP,2013-03-25 10:05:00,
2013-03-25 03:10:00,25.2,19.6,30.20,SE,135,0.0,0.0,79,0.00,,,0.00,WUHU21623XXSP,2013-03-25 10:10:00,
2013-03-25 03:15:00,25.3,19.6,30.20,SE,135,0.0,0.0,79,0.00,,,0.00,WUHU21623XXSP,2013-03-25 10:15:00,
2013-03-25 03:20:00,25.3,19.6,30.20,SE,135,0.0,0.0,79,0.00,,,0.00,WUHU21623XXSP,2013-03-25 10:20:00,
2013-03-25 03:25:00,25.5,19.8,30.20,SE,135,0.0,0.0,79,0.00,,,0.00,WUHU21623XXSP,2013-03-25 10:25:00,
2013-03-25 03:30:00,25.3,19.6,30.20,SE,135,0.0,0.0,79,0.00,,,0.00,WUHU21623XXSP,2013-03-25 10:30:00,
2013-03-25 03:35:00,25.5,19.8,30.20,SE,135,0.0,0.0,79,0.00,,,0.00,WUHU21623XXSP,2013-03-25 10:35:00,
2013-03-25 03:40:00,25.5,20.1,30.20,SE,135,0.0,0.0,80,0.00,,,0.00,WUHU21623XXSP,2013-03-25 10:40:00,
2013-03-25 03:45:00,25.3,19.9,30.19,East,90,0.0,0.0,80,0.00,,,0.00,WUHU21623XXSP,2013-03-25 10:45:00,
2013-03-25 03:50:00,25.3,19.4,30.19,NE,45,0.0,0.0,78,0.00,,,0.00,WUHU21623XXSP,2013-03-25 10:50:00,
2013-03-25 03:55:00,25.5,19.3,30.20,ENE,67,0.0,0.0,77,0.00,,,0.00,WUHU21623XXSP,2013-03-25 10:55:00,
2013-03-25 04:00:00,26.1,19.2,30.19,ENE,67,0.0,0.0,75,0.00,,,0.00,WUHU21623XXSP,2013-03-25 11:00:00,
2013-03-25 04:05:00,27.0,19.8,30.19,ENE,67,0.0,4.7,74,0.00,,,0.00,WUHU21623XXSP,2013-03-25 11:05:00,
2013-03-25 04:10:00,27.1,19.6,30.19,NE,45,0.0,4.7,73,0.00,,,0.00,WUHU21623XXSP,2013-03-25 11:10:00,
2013-03-25 04:15:00,27.3,19.8,30.19,NE,45,0.0,0.0,73,0.00,,,0.00,WUHU21623XXSP,2013-03-25 11:15:00,
2013-03-25 04:20:00,27.1,19.3,30.20,NE,45,0.0,0.0,72,0.00,,,0.00,WUHU21623XXSP,2013-03-25 11:20:00,
2013-03-25 04:25:00,27.3,19.4,30.19,NE,45,0.0,0.0,72,0.00,,,0.00,WUHU21623XXSP,2013-03-25 11:25:00,
2013-03-25 04:30:00,27.3,19.4,30.19,NE,45,4.0,4.0,72,0.00,,,0.00,WUHU21623XXSP,2013-03-25 11:30:00,
2013-03-25 04:35:00,27.5,19.3,30.19,ENE,67,0.0,6.5,71,0.00,,,0.00,WUHU21623XXSP,2013-03-25 11:35:00,
2013-03-25 04:40:00,27.7,19.5,30.19,NE,45,0.0,6.5,71,0.00,,,0.00,WUHU21623XXSP,2013-03-25 11:40:00,
2013-03-25 04:45:00,27.7,19.5,30.19,NE,45,0.0,2.5,71,0.00,,,0.00,WUHU21623XXSP,2013-03-25 11:45:00,
2013-03-25 04:50:00,27.5,19.3,30.19,NE,45,0.0,0.0,71,0.00,,,0.00,WUHU21623XXSP,2013-03-25 11:50:00,
2013-03-25 04:55:00,27.5,19.3,30.18,NE,45,0.0,0.0,71,0.00,,,0.00,WUHU21623XXSP,2013-03-25 11:55:00,
2013-03-25 05:00:00,27.3,19.1,30.18,ENE,67,0.0,0.0,71,0.00,,,0.00,WUHU21623XXSP,2013-03-25 12:00:00,
2013-03-25 05:05:00,27.3,18.8,30.18,ENE,67,0.0,0.0,70,0.00,,,0.00,WUHU21623XXSP,2013-03-25 12:05:00,
2013-03-25 05:10:00,27.3,19.1,30.18,NE,45,0.0,0.0,71,0.00,,,0.00,WUHU21623XXSP,2013-03-25 12:10:00,
2013-03-25 05:15:00,27.1,18.9,30.18,NE,45,0.0,0.0,71,0.00,,,0.00,WUHU21623XXSP,2013-03-25 12:15:00,
2013-03-25 05:20:00,27.1,18.9,30.18,NE,45,0.0,0.9,71,0.00,,,0.00,WUHU21623XXSP,2013-03-25 12:20:00,
2013-03-25 05:25:00,27.1,18.9,30.18,NE,45,0.0,0.9,71,0.00,,,0.00,WUHU21623XXSP,2013-03-25 12:25:00,
2013-03-25 05:30:00,27.1,18.9,30.19,NE,45,3.8,3.8,71,0.00,,,0.00,WUHU21623XXSP,2013-03-25 12:30:00,
2013-03-25 05:35:00,27.0,18.8,30.19,NE,45,0.0,3.8,71,0.00,,,0.00,WUHU21623XXSP,2013-03-25 12:35:00,
2013-03-25 05:40:00,26.8,18.6,30.19,NE,45,0.0,0.0,71,0.00,,,0.00,WUHU21623XXSP,2013-03-25 12:40:00,
2013-03-25 05:45:00,26.6,18.4,30.19,NE,45,0.0,0.0,71,0.00,,,0.00,WUHU21623XXSP,2013-03-25 12:45:00,
2013-03-25 05:50:00,26.6,18.4,30.19,NE,45,0.0,0.0,71,0.00,,,0.00,WUHU21623XXSP,2013-03-25 12:50:00,
2013-03-25 05:55:00,26.6,18.4,30.19,NE,45,0.0,0.0,71,0.00,,,0.00,WUHU21623XXSP,2013-03-25 12:55:00,
2013-03-25 06:00:00,26.6,18.4,30.19,NE,45,0.0,0.0,71,0.00,,,0.00,WUHU21623XXSP,2013-03-25 13:00:00,
2013-03-25 06:05:00,26.8,18.6,30.19,NE,45,0.0,0.0,71,0.00,,,0.00,WUHU21623XXSP,2013-03-25 13:05:00,
2013-03-25 06:10:00,26.8,18.6,30.19,NE,45,0.0,1.6,71,0.00,,,0.00,WUHU21623XXSP,2013-03-25 13:10:00,
2013-03-25 06:15:00,26.8,18.6,30.19,ENE,67,0.0,1.6,71,0.00,,,0.00,WUHU21623XXSP,2013-03-25 13:15:00,
2013-03-25 06:20:00,27.0,18.8,30.19,ENE,67,0.0,0.0,71,0.00,,,0.00,WUHU21623XXSP,2013-03-25 13:20:00,
2013-03-25 06:25:00,26.8,18.6,30.19,ENE,67,0.0,4.0,71,0.00,,,0.00,WUHU21623XXSP,2013-03-25 13:25:00,
2013-03-25 06:30:00,26.8,18.6,30.19,East,90,0.0,4.0,71,0.00,,,0.00,WUHU21623XXSP,2013-03-25 13:30:00,
2013-03-25 06:35:00,26.6,18.8,30.19,ENE,67,0.0,1.1,72,0.00,,,0.00,WUHU21623XXSP,2013-03-25 13:35:00,
2013-03-25 06:40:00,26.8,19.0,30.19,East,90,0.0,0.0,72,0.00,,,0.00,WUHU21623XXSP,2013-03-25 13:40:00,
2013-03-25 06:45:00,26.6,18.8,30.19,ENE,67,0.0,0.0,72,0.00,,,0.00,WUHU21623XXSP,2013-03-25 13:45:00,
2013-03-25 06:50:00,26.4,18.6,30.19,East,90,0.0,0.0,72,0.00,,,0.00,WUHU21623XXSP,2013-03-25 13:50:00,
2013-03-25 06:55:00,26.4,18.6,30.19,East,90,0.0,0.0,72,0.00,,,0.00,WUHU21623XXSP,2013-03-25 13:55:00,
2013-03-25 07:00:00,26.4,18.6,30.19,East,90,0.0,2.2,72,0.00,,,0.00,WUHU21623XXSP,2013-03-25 14:00:00,
2013-03-25 07:02:00,26.4,18.6,30.19,East,90,2.9,2.9,72,0.00,,,0.00,WUHU21623XXSP,2013-03-25 14:02:00,
2013-03-25 07:05:00,26.6,19.1,30.19,ENE,67,3.1,3.1,73,0.00,,,0.00,WUHU21623XXSP,2013-03-25 14:05:00,
2013-03-25 07:10:00,27.7,20.2,30.19,ENE,67,0.0,3.1,73,0.00,,,0.00,WUHU21623XXSP,2013-03-25 14:10:00,
2013-03-25 07:15:00,28.8,20.9,30.19,ENE,67,0.0,3.1,72,0.00,,,0.00,WUHU21623XXSP,2013-03-25 14:15:00,
2013-03-25 07:17:00,29.7,21.4,30.19,ENE,67,0.0,0.0,71,0.00,,,0.00,WUHU21623XXSP,2013-03-25 14:17:00,
2013-03-25 07:20:00,30.2,21.9,30.19,ENE,67,0.0,0.0,71,0.00,,,0.00,WUHU21623XXSP,2013-03-25 14:20:00,
2013-03-25 07:25:00,31.3,22.6,30.19,ENE,67,2.7,2.7,70,0.00,,,0.00,WUHU21623XXSP,2013-03-25 14:25:00,
2013-03-25 07:30:00,32.4,23.4,30.19,ENE,67,0.0,2.7,69,0.00,,,0.00,WUHU21623XXSP,2013-03-25 14:30:00,
2013-03-25 07:35:00,34.2,24.4,30.19,ENE,67,1.8,2.7,67,0.00,,,0.00,WUHU21623XXSP,2013-03-25 14:35:00,
2013-03-25 07:40:00,35.2,25.0,30.19,ENE,67,0.0,6.9,66,0.00,,,0.00,WUHU21623XXSP,2013-03-25 14:40:00,
2013-03-25 07:45:00,36.3,25.7,30.19,NE,45,0.0,6.9,65,0.00,,,0.00,WUHU21623XXSP,2013-03-25 14:45:00,
2013-03-25 07:50:00,37.8,26.3,30.19,NE,45,0.0,5.4,63,0.00,,,0.00,WUHU21623XXSP,2013-03-25 14:50:00,
2013-03-25 07:55:00,38.1,26.2,30.19,NE,45,0.0,0.9,62,0.00,,,0.00,WUHU21623XXSP,2013-03-25 14:55:00,
2013-03-25 08:00:00,38.8,26.5,30.19,NE,45,0.0,7.6,61,0.00,,,0.00,WUHU21623XXSP,2013-03-25 15:00:00,
2013-03-25 08:05:00,39.4,26.6,30.19,ENE,67,0.0,7.6,60,0.00,,,0.00,WUHU21623XXSP,2013-03-25 15:05:00,
2013-03-25 08:10:00,40.1,27.3,30.19,NE,45,0.0,0.0,60,0.00,,,0.00,WUHU21623XXSP,2013-03-25 15:10:00,
2013-03-25 08:15:00,40.6,26.9,30.19,NNE,22,7.4,7.4,58,0.00,,,0.00,WUHU21623XXSP,2013-03-25 15:15:00,
2013-03-25 08:20:00,40.8,26.7,30.19,NE,45,0.0,7.4,57,0.00,,,0.00,WUHU21623XXSP,2013-03-25 15:20:00,
2013-03-25 08:25:00,41.2,27.5,30.19,NE,45,1.8,7.4,58,0.00,,,0.00,WUHU21623XXSP,2013-03-25 15:25:00,
2013-03-25 08:30:00,41.5,27.3,30.19,NE,45,2.5,2.9,57,0.00,,,0.00,WUHU21623XXSP,2013-03-25 15:30:00,
2013-03-25 08:35:00,42.1,27.9,30.19,NE,45,0.0,2.9,57,0.00,,,0.00,WUHU21623XXSP,2013-03-25 15:35:00,
2013-03-25 08:40:00,42.4,28.2,30.19,ENE,67,7.6,7.6,57,0.00,,,0.00,WUHU21623XXSP,2013-03-25 15:40:00,
2013-03-25 08:45:00,42.4,28.2,30.18,NE,45,0.0,7.8,57,0.00,,,0.00,WUHU21623XXSP,2013-03-25 15:45:00,
2013-03-25 08:50:00,42.8,28.6,30.18,NE,45,2.2,7.8,57,0.00,,,0.00,WUHU21623XXSP,2013-03-25 15:50:00,
2013-03-25 08:55:00,43.0,28.3,30.18,NE,45,6.7,6.7,56,0.00,,,0.00,WUHU21623XXSP,2013-03-25 15:55:00,
2013-03-25 09:00:00,43.0,27.9,30.18,ENE,67,2.5,7.2,55,0.00,,,0.00,WUHU21623XXSP,2013-03-25 16:00:00,
2013-03-25 09:05:00,42.1,27.5,30.18,ENE,67,7.8,7.8,56,0.00,,,0.00,WUHU21623XXSP,2013-03-25 16:05:00,
2013-03-25 09:10:00,42.4,28.2,30.18,ENE,67,7.6,7.8,57,0.00,,,0.00,WUHU21623XXSP,2013-03-25 16:10:00,
2013-03-25 09:15:00,41.7,27.5,30.18,ENE,67,10.5,10.5,57,0.00,,,0.00,WUHU21623XXSP,2013-03-25 16:15:00,
2013-03-25 09:20:00,41.7,27.1,30.18,NE,45,4.5,10.5,56,0.00,,,0.00,WUHU21623XXSP,2013-03-25 16:20:00,
2013-03-25 09:25:00,42.4,27.8,30.18,NE,45,6.9,7.8,56,0.00,,,0.00,WUHU21623XXSP,2013-03-25 16:25:00,
2013-03-25 09:30:00,43.0,27.9,30.18,ENE,67,0.0,8.5,55,0.00,,,0.00,WUHU21623XXSP,2013-03-25 16:30:00,
2013-03-25 09:35:00,43.5,28.3,30.18,NE,45,1.6,11.2,55,0.00,,,0.00,WUHU21623XXSP,2013-03-25 16:35:00,
2013-03-25 09:40:00,44.1,28.9,30.18,NE,45,7.4,11.2,55,0.00,,,0.00,WUHU21623XXSP,2013-03-25 16:40:00,
2013-03-25 09:45:00,43.7,28.5,30.18,NE,45,9.8,9.8,55,0.00,,,0.00,WUHU21623XXSP,2013-03-25 16:45:00,
2013-03-25 09:50:00,44.2,28.5,30.18,NE,45,8.3,9.8,54,0.00,,,0.00,WUHU21623XXSP,2013-03-25 16:50:00,
2013-03-25 09:55:00,43.9,28.2,30.18,NE,45,5.6,11.6,54,0.00,,,0.00,WUHU21623XXSP,2013-03-25 16:55:00,
2013-03-25 10:00:00,44.4,28.2,30.18,NE,45,9.4,11.6,53,0.00,,,0.00,WUHU21623XXSP,2013-03-25 17:00:00,
2013-03-25 10:05:00,43.9,28.2,30.18,NE,45,2.0,9.4,54,0.00,,,0.00,WUHU21623XXSP,2013-03-25 17:05:00,
2013-03-25 10:10:00,44.2,28.1,30.18,ENE,67,7.8,7.8,53,0.00,,,0.00,WUHU21623XXSP,2013-03-25 17:10:00,
2013-03-25 10:15:00,43.3,27.7,30.18,NE,45,4.5,8.1,54,0.00,,,0.00,WUHU21623XXSP,2013-03-25 17:15:00,
2013-03-25 10:20:00,44.1,28.4,30.18,ENE,67,0.0,8.1,54,0.00,,,0.00,WUHU21623XXSP,2013-03-25 17:20:00,
2013-03-25 10:25:00,44.4,28.7,30.18,NE,45,4.7,4.7,54,0.00,,,0.00,WUHU21623XXSP,2013-03-25 17:25:00,
2013-03-25 10:30:00,45.1,28.9,30.18,NE,45,0.0,8.7,53,0.00,,,0.00,WUHU21623XXSP,2013-03-25 17:30:00,
2013-03-25 10:35:00,45.5,28.8,30.18,ENE,67,6.3,8.7,52,0.00,,,0.00,WUHU21623XXSP,2013-03-25 17:35:00,
2013-03-25 10:40:00,45.3,28.1,30.18,ENE,67,8.3,8.3,51,0.00,,,0.00,WUHU21623XXSP,2013-03-25 17:40:00,
2013-03-25 10:45:00,45.1,27.9,30.18,ENE,67,3.8,8.3,51,0.00,,,0.00,WUHU21623XXSP,2013-03-25 17:45:00,
2013-03-25 10:50:00,45.3,28.1,30.18,ENE,67,6.3,7.2,51,0.00,,,0.00,WUHU21623XXSP,2013-03-25 17:50:00,
2013-03-25 10:55:00,45.1,28.4,30.18,East,90,7.8,7.8,52,0.00,,,0.00,WUHU21623XXSP,2013-03-25 17:55:00,
2013-03-25 11:00:00,46.0,28.8,30.18,NE,45,0.0,7.8,51,0.00,,,0.00,WUHU21623XXSP,2013-03-25 18:00:00,
2013-03-25 11:05:00,46.6,29.8,30.18,NNE,22,6.0,8.1,52,0.00,,,0.00,WUHU21623XXSP,2013-03-25 18:05:00,
2013-03-25 11:10:00,47.5,30.1,30.18,NE,45,8.7,8.7,51,0.00,,,0.00,WUHU21623XXSP,2013-03-25 18:10:00,
2013-03-25 11:15:00,46.9,29.6,30.17,NE,45,0.0,8.7,51,0.00,,,0.00,WUHU21623XXSP,2013-03-25 18:15:00,
2013-03-25 11:20:00,46.6,28.8,30.17,ESE,112,2.7,3.4,50,0.00,,,0.00,WUHU21623XXSP,2013-03-25 18:20:00,
2013-03-25 11:25:00,46.6,29.3,30.17,East,90,6.7,6.7,51,0.00,,,0.00,WUHU21623XXSP,2013-03-25 18:25:00,
2013-03-25 11:28:00,46.6,29.8,30.17,ENE,67,8.9,8.9,52,0.00,,,0.00,WUHU21623XXSP,2013-03-25 18:28:00,
2013-03-25 11:30:00,46.9,29.6,30.17,ESE,112,0.0,8.9,51,0.00,,,0.00,WUHU21623XXSP,2013-03-25 18:30:00,
2013-03-25 11:34:00,47.1,29.8,30.17,NE,45,10.3,10.3,51,0.00,,,0.00,WUHU21623XXSP,2013-03-25 18:34:00,
2013-03-25 11:35:00,47.1,29.8,30.17,NE,45,10.3,10.3,51,0.00,,,0.00,WUHU21623XXSP,2013-03-25 18:35:00,
2013-03-25 11:40:00,47.7,30.3,30.17,ENE,67,3.1,10.3,51,0.00,,,0.00,WUHU21623XXSP,2013-03-25 18:40:00,
2013-03-25 11:45:00,47.3,29.5,30.17,ENE,67,8.9,8.9,50,0.00,,,0.00,WUHU21623XXSP,2013-03-25 18:45:00,
2013-03-25 11:50:00,46.9,29.6,30.16,ENE,67,0.0,8.9,51,0.00,,,0.00,WUHU21623XXSP,2013-03-25 18:50:00,
2013-03-25 11:55:00,47.1,29.3,30.16,East,90,0.2,4.0,50,0.00,,,0.00,WUHU21623XXSP,2013-03-25 18:55:00,
2013-03-25 12:00:00,46.9,28.6,30.16,ESE,112,0.0,9.4,49,0.00,,,0.00,WUHU21623XXSP,2013-03-25 19:00:00,
2013-03-25 12:05:00,45.7,28.0,30.16,East,90,1.1,9.4,50,0.00,,,0.00,WUHU21623XXSP,2013-03-25 19:05:00,
2013-03-25 12:10:00,45.9,28.2,30.16,ESE,112,6.9,7.6,50,0.00,,,0.00,WUHU21623XXSP,2013-03-25 19:10:00,
2013-03-25 12:15:00,46.2,28.9,30.16,ENE,67,0.0,9.8,51,0.00,,,0.00,WUHU21623XXSP,2013-03-25 19:15:00,
2013-03-25 12:20:00,46.2,28.4,30.16,ENE,67,6.7,9.8,50,0.00,,,0.00,WUHU21623XXSP,2013-03-25 19:20:00,
2013-03-25 12:26:00,46.6,29.3,30.15,ENE,67,8.1,8.1,51,0.00,,,0.00,WUHU21623XXSP,2013-03-25 19:26:00,
2013-03-25 12:30:00,46.8,29.5,30.15,NE,45,5.4,8.1,51,0.00,,,0.00,WUHU21623XXSP,2013-03-25 19:30:00,
2013-03-25 12:35:00,46.8,28.5,30.15,SE,135,8.1,8.7,49,0.00,,,0.00,WUHU21623XXSP,2013-03-25 19:35:00,
2013-03-25 12:40:00,46.2,28.4,30.14,ESE,112,3.1,8.7,50,0.00,,,0.00,WUHU21623XXSP,2013-03-25 19:40:00,
2013-03-25 12:46:00,46.6,28.8,30.14,NE,45,7.2,7.2,50,0.00,,,0.00,WUHU21623XXSP,2013-03-25 19:46:00,
2013-03-25 12:51:00,46.2,28.4,30.14,ESE,112,8.9,8.9,50,0.00,,,0.00,WUHU21623XXSP,2013-03-25 19:51:00,
2013-03-25 12:56:00,45.7,28.0,30.14,ENE,67,0.0,8.9,50,0.00,,,0.00,WUHU21623XXSP,2013-03-25 19:56:00,
2013-03-25 13:00:00,46.2,28.9,30.14,ENE,67,0.0,7.8,51,0.00,,,0.00,WUHU21623XXSP,2013-03-25 20:00:00,
2013-03-25 13:06:00,46.6,29.8,30.14,North,0,0.0,0.0,52,0.00,,,0.00,WUHU21623XXSP,2013-03-25 20:06:00,
2013-03-25 13:11:00,46.6,28.8,30.13,SE,135,0.0,1.8,50,0.00,,,0.00,WUHU21623XXSP,2013-03-25 20:11:00,
2013-03-25 13:16:00,46.2,28.4,30.13,SE,135,8.1,8.1,50,0.00,,,0.00,WUHU21623XXSP,2013-03-25 20:16:00,
2013-03-25 13:21:00,46.2,28.4,30.13,ESE,112,0.0,8.1,50,0.00,,,0.00,WUHU21623XXSP,2013-03-25 20:21:00,
2013-03-25 13:26:00,47.1,29.8,30.13,ENE,67,0.0,8.7,51,0.00,,,0.00,WUHU21623XXSP,2013-03-25 20:26:00,
2013-03-25 13:31:00,47.1,29.8,30.13,SE,135,7.4,8.7,51,0.00,,,0.00,WUHU21623XXSP,2013-03-25 20:31:00,
2013-03-25 13:36:00,46.9,28.6,30.12,SE,135,0.0,7.4,49,0.00,,,0.00,WUHU21623XXSP,2013-03-25 20:36:00,
2013-03-25 13:41:00,47.1,29.3,30.13,WSW,247,0.0,7.4,50,0.00,,,0.00,WUHU21623XXSP,2013-03-25 20:41:00,
2013-03-25 13:46:00,47.1,29.3,30.12,WSW,247,0.0,7.4,50,0.00,,,0.00,WUHU21623XXSP,2013-03-25 20:46:00,
2013-03-25 13:51:00,47.8,29.9,30.12,ESE,112,13.2,13.2,50,0.00,,,0.00,WUHU21623XXSP,2013-03-25 20:51:00,
2013-03-25 13:56:00,47.8,29.9,30.12,NE,45,0.0,13.2,50,0.00,,,0.00,WUHU21623XXSP,2013-03-25 20:56:00,
2013-03-25 14:01:00,48.4,30.5,30.12,WSW,247,0.0,13.2,50,0.00,,,0.00,WUHU21623XXSP,2013-03-25 21:01:00,
2013-03-25 14:06:00,48.7,30.2,30.12,WSW,247,5.6,7.8,49,0.00,,,0.00,WUHU21623XXSP,2013-03-25 21:06:00,
2013-03-25 14:11:00,48.2,29.8,30.11,WSW,247,0.0,7.8,49,0.00,,,0.00,WUHU21623XXSP,2013-03-25 21:11:00,
2013-03-25 14:16:00,48.0,29.6,30.11,WSW,247,0.0,8.9,49,0.00,,,0.00,WUHU21623XXSP,2013-03-25 21:16:00,
2013-03-25 14:21:00,48.4,30.5,30.11,WSW,247,0.0,8.9,50,0.00,,,0.00,WUHU21623XXSP,2013-03-25 21:21:00,
2013-03-25 14:26:00,49.6,31.1,30.10,WSW,247,9.4,9.4,49,0.00,,,0.00,WUHU21623XXSP,2013-03-25 21:26:00,
2013-03-25 14:31:00,48.7,30.2,30.10,WSW,247,0.9,9.4,49,0.00,,,0.00,WUHU21623XXSP,2013-03-25 21:31:00,
2013-03-25 14:36:00,48.7,30.8,30.10,WSW,247,8.3,8.3,50,0.00,,,0.00,WUHU21623XXSP,2013-03-25 21:36:00,
2013-03-25 14:41:00,49.8,31.8,30.10,South,180,6.5,8.3,50,0.00,,,0.00,WUHU21623XXSP,2013-03-25 21:41:00,
2013-03-25 14:46:00,49.8,31.8,30.10,South,180,0.0,6.5,50,0.00,,,0.00,WUHU21623XXSP,2013-03-25 21:46:00,
2013-03-25 14:51:00,50.7,33.1,30.09,WSW,247,0.0,0.0,51,0.00,,,0.00,WUHU21623XXSP,2013-03-25 21:51:00,
2013-03-25 14:56:00,50.7,32.1,30.09,SW,225,2.9,2.9,49,0.00,,,0.00,WUHU21623XXSP,2013-03-25 21:56:00,
2013-03-25 15:00:00,50.9,32.3,30.09,SSE,157,4.0,5.6,49,0.00,,,0.00,WUHU21623XXSP,2013-03-25 22:00:00,
2013-03-25 15:06:00,49.6,31.1,30.10,SSE,157,0.0,5.6,49,0.00,,,0.00,WUHU21623XXSP,2013-03-25 22:06:00,
2013-03-25 15:11:00,50.4,32.3,30.10,SSE,157,0.0,0.0,50,0.00,,,0.00,WUHU21623XXSP,2013-03-25 22:11:00,
2013-03-25 15:16:00,50.5,31.9,30.09,ESE,112,0.0,0.0,49,0.00,,,0.00,WUHU21623XXSP,2013-03-25 22:16:00,
2013-03-25 15:21:00,50.4,31.8,30.09,NNE,22,3.6,3.6,49,0.00,,,0.00,WUHU21623XXSP,2013-03-25 22:21:00,
2013-03-25 15:26:00,50.2,32.1,30.09,WSW,247,0.0,4.5,50,0.00,,,0.00,WUHU21623XXSP,2013-03-25 22:26:00,
2013-03-25 15:31:00,50.2,32.1,30.09,WSW,247,0.0,4.5,50,0.00,,,0.00,WUHU21623XXSP,2013-03-25 22:31:00,
2013-03-25 15:36:00,50.2,32.1,30.09,WSW,247,3.1,8.7,50,0.00,,,0.00,WUHU21623XXSP,2013-03-25 22:36:00,
2013-03-25 15:41:00,50.2,32.1,30.09,WSW,247,3.8,8.7,50,0.00,,,0.00,WUHU21623XXSP,2013-03-25 22:41:00,
2013-03-25 15:46:00,50.2,32.1,30.08,WSW,247,0.0,3.8,50,0.00,,,0.00,WUHU21623XXSP,2013-03-25 22:46:00,
2013-03-25 15:51:00,50.4,32.8,30.08,WSW,247,0.0,0.0,51,0.00,,,0.00,WUHU21623XXSP,2013-03-25 22:51:00,
2013-03-25 15:56:00,50.2,32.7,30.08,WSW,247,7.2,7.2,51,0.00,,,0.00,WUHU21623XXSP,2013-03-25 22:56:00,
2013-03-25 16:01:00,50.2,32.1,30.08,WSW,247,0.0,7.2,50,0.00,,,0.00,WUHU21623XXSP,2013-03-25 23:01:00,
2013-03-25 16:06:00,49.8,31.8,30.08,WSW,247,0.0,4.5,50,0.00,,,0.00,WUHU21623XXSP,2013-03-25 23:06:00,
2013-03-25 16:10:00,49.8,31.8,30.08,WSW,247,0.0,4.5,50,0.00,,,0.00,WUHU21623XXSP,2013-03-25 23:10:00,
2013-03-25 16:16:00,50.2,33.2,30.08,WSW,247,8.7,8.7,52,0.00,,,0.00,WUHU21623XXSP,2013-03-25 23:16:00,
2013-03-25 16:20:00,50.2,31.6,30.08,WSW,247,7.8,8.7,49,0.00,,,0.00,WUHU21623XXSP,2013-03-25 23:20:00,
2013-03-25 16:26:00,50.2,32.1,30.08,WSW,247,8.1,8.1,50,0.00,,,0.00,WUHU21623XXSP,2013-03-25 23:26:00,
2013-03-25 16:31:00,49.3,31.3,30.07,WSW,247,2.2,8.1,50,0.00,,,0.00,WUHU21623XXSP,2013-03-25 23:31:00,
2013-03-25 16:36:00,49.3,31.3,30.07,WSW,247,0.0,4.0,50,0.00,,,0.00,WUHU21623XXSP,2013-03-25 23:36:00,
2013-03-25 16:41:00,49.6,32.1,30.07,WSW,247,0.0,8.1,51,0.00,,,0.00,WUHU21623XXSP,2013-03-25 23:41:00,
2013-03-25 16:46:00,50.2,33.2,30.08,WSW,247,0.0,8.1,52,0.00,,,0.00,WUHU21623XXSP,2013-03-25 23:46:00,
2013-03-25 16:51:00,50.7,33.6,30.07,WSW,247,0.0,6.7,52,0.00,,,0.00,WUHU21623XXSP,2013-03-25 23:51:00,
2013-03-25 16:56:00,51.4,33.8,30.07,WSW,247,0.0,6.7,51,0.00,,,0.00,WUHU21623XXSP,2013-03-25 23:56:00,
2013-03-25 17:01:00,51.3,33.7,30.06,WSW,247,0.0,0.0,51,0.00,,,0.00,WUHU21623XXSP,2013-03-26 00:01:00,
2013-03-25 17:06:00,50.9,33.3,30.07,WSW,247,0.0,0.0,51,0.00,,,0.00,WUHU21623XXSP,2013-03-26 00:06:00,
2013-03-25 17:11:00,49.8,31.8,30.07,WSW,247,0.0,4.9,50,0.00,,,0.00,WUHU21623XXSP,2013-03-26 00:11:00,
2013-03-25 17:16:00,49.3,31.8,30.07,WSW,247,0.0,4.9,51,0.00,,,0.00,WUHU21623XXSP,2013-03-26 00:16:00,
2013-03-25 17:21:00,49.8,32.8,30.06,WSW,247,0.0,0.0,52,0.00,,,0.00,WUHU21623XXSP,2013-03-26 00:21:00,
2013-03-25 17:26:00,50.2,32.7,30.06,WSW,247,0.0,0.0,51,0.00,,,0.00,WUHU21623XXSP,2013-03-26 00:26:00,
2013-03-25 17:31:00,49.6,32.1,30.06,WSW,247,7.4,7.4,51,0.00,,,0.00,WUHU21623XXSP,2013-03-26 00:31:00,
2013-03-25 17:36:00,49.1,31.6,30.06,WSW,247,0.0,7.4,51,0.00,,,0.00,WUHU21623XXSP,2013-03-26 00:36:00,
2013-03-25 17:41:00,48.7,31.3,30.05,SSE,157,0.0,4.9,51,0.00,,,0.00,WUHU21623XXSP,2013-03-26 00:41:00,
2013-03-25 17:46:00,48.7,31.8,30.06,SSE,157,0.0,4.9,52,0.00,,,0.00,WUHU21623XXSP,2013-03-26 00:46:00,
2013-03-25 17:51:00,48.7,31.8,30.06,SSE,157,0.0,0.0,52,0.00,,,0.00,WUHU21623XXSP,2013-03-26 00:51:00,
2013-03-25 17:56:00,49.5,33.0,30.05,SSE,157,0.0,0.0,53,0.00,,,0.00,WUHU21623XXSP,2013-03-26 00:56:00,
2013-03-25 18:01:00,49.8,33.3,30.05,SSE,157,0.0,0.0,53,0.00,,,0.00,WUHU21623XXSP,2013-03-26 01:01:00,
2013-03-25 18:06:00,49.6,33.1,30.05,ESE,112,0.0,8.1,53,0.00,,,0.00,WUHU21623XXSP,2013-03-26 01:06:00,
2013-03-25 18:11:00,48.9,32.9,30.05,SE,135,0.0,8.1,54,0.00,,,0.00,WUHU21623XXSP,2013-03-26 01:11:00,
2013-03-25 18:16:00,48.7,32.2,30.06,SE,135,0.0,0.0,53,0.00,,,0.00,WUHU21623XXSP,2013-03-26 01:16:00,
2013-03-25 18:21:00,48.0,31.6,30.05,SE,135,0.0,1.6,53,0.00,,,0.00,WUHU21623XXSP,2013-03-26 01:21:00,
2013-03-25 18:26:00,47.8,31.4,30.05,SE,135,0.0,1.6,53,0.00,,,0.00,WUHU21623XXSP,2013-03-26 01:26:00,
2013-03-25 18:31:00,47.8,31.4,30.05,SE,135,0.0,0.0,53,0.00,,,0.00,WUHU21623XXSP,2013-03-26 01:31:00,
2013-03-25 18:36:00,48.0,31.6,30.05,SE,135,0.0,0.0,53,0.00,,,0.00,WUHU21623XXSP,2013-03-26 01:36:00,
2013-03-25 18:41:00,48.0,31.6,30.05,East,90,0.0,0.0,53,0.00,,,0.00,WUHU21623XXSP,2013-03-26 01:41:00,
2013-03-25 18:46:00,47.8,31.4,30.05,East,90,0.0,0.0,53,0.00,,,0.00,WUHU21623XXSP,2013-03-26 01:46:00,
2013-03-25 18:51:00,47.1,30.8,30.05,East,90,0.0,0.0,53,0.00,,,0.00,WUHU21623XXSP,2013-03-26 01:51:00,
2013-03-25 18:56:00,46.2,30.4,30.05,ENE,67,0.0,0.0,54,0.00,,,0.00,WUHU21623XXSP,2013-03-26 01:56:00,
2013-03-25 19:01:00,45.9,30.1,30.05,ENE,67,0.0,0.0,54,0.00,,,0.00,WUHU21623XXSP,2013-03-26 02:01:00,
2013-03-25 19:06:00,45.3,30.0,30.05,ENE,67,0.0,0.0,55,0.00,,,0.00,WUHU21623XXSP,2013-03-26 02:06:00,
2013-03-25 19:11:00,44.4,29.6,30.05,ENE,67,0.0,0.0,56,0.00,,,0.00,WUHU21623XXSP,2013-03-26 02:11:00,
2013-03-25 19:16:00,43.9,29.2,30.05,ENE,67,0.0,0.0,56,0.00,,,0.00,WUHU21623XXSP,2013-03-26 02:16:00,
2013-03-25 19:21:00,43.2,28.9,30.05,ENE,67,0.0,0.0,57,0.00,,,0.00,WUHU21623XXSP,2013-03-26 02:21:00,
2013-03-25 19:26:00,42.1,27.9,30.05,ENE,67,0.0,0.0,57,0.00,,,0.00,WUHU21623XXSP,2013-03-26 02:26:00,
2013-03-25 19:31:00,41.5,27.8,30.04,ENE,67,0.0,0.0,58,0.00,,,0.00,WUHU21623XXSP,2013-03-26 02:31:00,
2013-03-25 19:36:00,41.0,26.9,30.05,ENE,67,0.0,0.0,57,0.00,,,0.00,WUHU21623XXSP,2013-03-26 02:36:00,
2013-03-25 19:41:00,40.3,26.7,30.05,ENE,67,0.0,0.0,58,0.00,,,0.00,WUHU21623XXSP,2013-03-26 02:41:00,
2013-03-25 19:46:00,39.7,26.5,30.04,ENE,67,0.0,0.0,59,0.00,,,0.00,WUHU21623XXSP,2013-03-26 02:46:00,
2013-03-25 19:51:00,39.2,26.5,30.04,ENE,67,0.0,0.0,60,0.00,,,0.00,WUHU21623XXSP,2013-03-26 02:51:00,
2013-03-25 19:56:00,38.5,26.2,30.05,ENE,67,0.0,0.0,61,0.00,,,0.00,WUHU21623XXSP,2013-03-26 02:56:00,
2013-03-25 20:01:00,37.9,25.6,30.05,ENE,67,0.0,0.0,61,0.00,,,0.00,WUHU21623XXSP,2013-03-26 03:01:00,
2013-03-25 20:06:00,37.6,25.7,30.05,ENE,67,0.0,0.0,62,0.00,,,0.00,WUHU21623XXSP,2013-03-26 03:06:00,
2013-03-25 20:11:00,36.9,25.1,30.05,ENE,67,0.0,0.0,62,0.00,,,0.00,WUHU21623XXSP,2013-03-26 03:11:00,
2013-03-25 20:16:00,36.5,25.5,30.05,ENE,67,0.0,0.0,64,0.00,,,0.00,WUHU21623XXSP,2013-03-26 03:16:00,
2013-03-25 20:21:00,36.0,25.7,30.04,ENE,67,0.0,0.0,66,0.00,,,0.00,WUHU21623XXSP,2013-03-26 03:21:00,
2013-03-25 20:26:00,35.4,25.2,30.04,ENE,67,0.0,0.0,66,0.00,,,0.00,WUHU21623XXSP,2013-03-26 03:26:00,
2013-03-25 20:31:00,35.2,25.0,30.05,ENE,67,0.0,0.0,66,0.00,,,0.00,WUHU21623XXSP,2013-03-26 03:31:00,
2013-03-25 20:36:00,34.9,25.1,30.05,ENE,67,0.0,0.0,67,0.00,,,0.00,WUHU21623XXSP,2013-03-26 03:36:00,
2013-03-25 20:41:00,34.3,24.8,30.05,ENE,67,0.0,0.0,68,0.00,,,0.00,WUHU21623XXSP,2013-03-26 03:41:00,
2013-03-25 20:46:00,34.3,25.5,30.05,ENE,67,0.0,0.0,70,0.00,,,0.00,WUHU21623XXSP,2013-03-26 03:46:00,
2013-03-25 20:51:00,34.2,25.8,30.05,ENE,67,0.0,0.0,71,0.00,,,0.00,WUHU21623XXSP,2013-03-26 03:51:00,
2013-03-25 20:56:00,33.8,25.7,30.05,ENE,67,0.0,0.0,72,0.00,,,0.00,WUHU21623XXSP,2013-03-26 03:56:00,
2013-03-25 21:00:00,33.6,26.2,30.04,ENE,67,0.0,0.0,74,0.00,,,0.00,WUHU21623XXSP,2013-03-26 04:00:00,
2013-03-25 21:05:00,33.4,25.7,30.05,ENE,67,0.0,0.0,73,0.00,,,0.00,WUHU21623XXSP,2013-03-26 04:05:00,
2013-03-25 21:10:00,33.3,25.6,30.05,ENE,67,0.0,0.0,73,0.00,,,0.00,WUHU21623XXSP,2013-03-26 04:10:00,
2013-03-25 21:15:00,33.1,25.4,30.05,ENE,67,0.0,0.0,73,0.00,,,0.00,WUHU21623XXSP,2013-03-26 04:15:00,
2013-03-25 21:20:00,32.7,25.0,30.05,ENE,67,0.0,0.0,73,0.00,,,0.00,WUHU21623XXSP,2013-03-26 04:20:00,
2013-03-25 21:25:00,32.7,25.3,30.05,ENE,67,0.0,0.0,74,0.00,,,0.00,WUHU21623XXSP,2013-03-26 04:25:00,
2013-03-25 21:30:00,32.7,25.9,30.05,ENE,67,0.0,0.0,76,0.00,,,0.00,WUHU21623XXSP,2013-03-26 04:30:00,
2013-03-25 21:35:00,32.5,25.4,30.05,ENE,67,0.0,0.0,75,0.00,,,0.00,WUHU21623XXSP,2013-03-26 04:35:00,
2013-03-25 21:40:00,32.5,25.1,30.05,ENE,67,0.0,0.0,74,0.00,,,0.00,WUHU21623XXSP,2013-03-26 04:40:00,
2013-03-25 21:45:00,32.4,25.0,30.05,ENE,67,0.0,0.0,74,0.00,,,0.00,WUHU21623XXSP,2013-03-26 04:45:00,
2013-03-25 21:50:00,32.4,25.7,30.05,ENE,67,0.0,0.0,76,0.00,,,0.00,WUHU21623XXSP,2013-03-26 04:50:00,
2013-03-25 21:55:00,32.2,26.1,30.05,ENE,67,0.0,0.0,78,0.00,,,0.00,WUHU21623XXSP,2013-03-26 04:55:00,
2013-03-25 22:00:00,32.2,26.1,30.05,ENE,67,0.0,0.0,78,0.00,,,0.00,WUHU21623XXSP,2013-03-26 05:00:00,
2013-03-25 22:05:00,32.2,26.1,30.05,ENE,67,0.0,0.0,78,0.00,,,0.00,WUHU21623XXSP,2013-03-26 05:05:00,
2013-03-25 22:10:00,31.8,25.7,30.05,ENE,67,0.0,0.0,78,0.00,,,0.00,WUHU21623XXSP,2013-03-26 05:10:00,
2013-03-25 22:15:00,31.6,25.5,30.04,ENE,67,0.0,0.0,78,0.00,,,0.00,WUHU21623XXSP,2013-03-26 05:15:00,
2013-03-25 22:20:00,31.6,25.2,30.04,ENE,67,0.0,0.0,77,0.00,,,0.00,WUHU21623XXSP,2013-03-26 05:20:00,
2013-03-25 22:25:00,31.3,25.2,30.05,ENE,67,0.0,0.0,78,0.00,,,0.00,WUHU21623XXSP,2013-03-26 05:25:00,
2013-03-25 22:30:00,31.5,25.7,30.05,ENE,67,0.0,0.0,79,0.00,,,0.00,WUHU21623XXSP,2013-03-26 05:30:00,
2013-03-25 22:35:00,31.3,25.2,30.05,ENE,67,0.0,0.0,78,0.00,,,0.00,WUHU21623XXSP,2013-03-26 05:35:00,
2013-03-25 22:40:00,31.1,24.7,30.05,East,90,0.0,0.0,77,0.00,,,0.00,WUHU21623XXSP,2013-03-26 05:40:00,
2013-03-25 22:45:00,30.9,24.8,30.05,East,90,0.0,0.0,78,0.00,,,0.00,WUHU21623XXSP,2013-03-26 05:45:00,
2013-03-25 22:50:00,30.9,25.1,30.05,East,90,0.0,0.0,79,0.00,,,0.00,WUHU21623XXSP,2013-03-26 05:50:00,
2013-03-25 22:55:00,30.7,24.9,30.05,East,90,0.0,0.0,79,0.00,,,0.00,WUHU21623XXSP,2013-03-26 05:55:00,
2013-03-25 23:00:00,30.7,25.2,30.05,East,90,0.0,0.0,80,0.00,,,0.00,WUHU21623XXSP,2013-03-26 06:00:00,
2013-03-25 23:05:00,30.7,25.2,30.05,East,90,0.0,0.0,80,0.00,,,0.00,WUHU21623XXSP,2013-03-26 06:05:00,
2013-03-25 23:10:00,30.7,25.5,30.05,East,90,0.0,0.0,81,0.00,,,0.00,WUHU21623XXSP,2013-03-26 06:10:00,
2013-03-25 23:15:00,30.7,25.2,30.05,East,90,0.0,0.0,80,0.00,,,0.00,WUHU21623XXSP,2013-03-26 06:15:00,
2013-03-25 23:20:00,30.7,25.5,30.05,East,90,0.0,0.0,81,0.00,,,0.00,WUHU21623XXSP,2013-03-26 06:20:00,
2013-03-25 23:25:00,30.9,26.0,30.05,East,90,0.0,0.0,82,0.00,,,0.00,WUHU21623XXSP,2013-03-26 06:25:00,
2013-03-25 23:30:00,30.9,26.0,30.04,East,90,0.0,0.0,82,0.00,,,0.00,WUHU21623XXSP,2013-03-26 06:30:00,
2013-03-25 23:35:00,30.7,25.5,30.04,East,90,0.0,0.0,81,0.00,,,0.00,WUHU21623XXSP,2013-03-26 06:35:00,
2013-03-25 23:40:00,30.6,25.1,30.04,East,90,0.0,0.0,80,0.00,,,0.00,WUHU21623XXSP,2013-03-26 06:40:00,
2013-03-25 23:45:00,30.4,24.9,30.04,East,90,0.0,0.0,80,0.00,,,0.00,WUHU21623XXSP,2013-03-26 06:45:00,
2013-03-25 23:50:00,30.4,24.9,30.04,East,90,0.0,0.0,80,0.00,,,0.00,WUHU21623XXSP,2013-03-26 06:50:00,
2013-03-25 23:55:00,30.0,24.5,30.04,East,90,0.0,0.0,80,0.00,,,0.00,WUHU21623XXSP,2013-03-26 06:55:00,